Location: Eferding
(48.3167°N, 14.0167°E)
Time: 18:46:00
(UTC+00:00)

Cosmos 1633 - Pass Details

Date: 12 November 2019
Orbit: 465 x 482 km, 82.5° (Epoch: 14 December)

Event Time Altitude Azimuth Distance (km) Brightness Sun altitude
Rises 17:44:56 0° 346° (NNW) 2,561 6.4 -22.5°
Reaches altitude 10° 17:47:04 10° 342° (NNW) 1,676 5.5 -22.9°
Maximum altitude 17:50:39 56° 265° (W) 584 3.2 -23.5°
Enters shadow 17:52:49 22° 193° (SSW) 1,109 4.5 -23.8°
